Regional Weather Roundup
Issued by NWS Northern Indiana

Home | Current Version | Previous Version | Graphics & Text | Print | Product List | Glossary On
Versions: 1 2 3 4 5 6 7 8 9 10 11 12 13 14 15 16 17 18 19 20 21 22 23 24 25 26 27 28 29 30 31 32 33 34 35 36 37 38 39 40 41 42 43 44 45 46 47 48 49 50
164
ASUS43 KIWX 200809
RWRIWX

KIWX WEATHER ROUNDUP
NATIONAL WEATHER SERVICE NORTHERN INDIANA
400 AM EDT FRI APR 20 2018

NOTE: "FAIR" INDICATES FEW OR NO CLOUDS BELOW 12,000 FEET WITH NO
SIGNIFICANT WEATHER AND/OR OBSTRUCTIONS TO VISIBILITY.

* THESE STATIONS ARE NOT UNDER NWS QUALITY CONTROL. THEY ALSO MAY NOT
  REPORT WEATHER SUCH AS PRECIPITATION OR FOG.

INZ001>027-200900-
NORTHERN INDIANA

CITY           SKY/WX    TMP DP  RH WIND       PRES   REMARKS
GARY*          FAIR      31  31 100 CALM      30.45R FOG
VALPARAISO     FAIR      36  26  67 CALM      30.44R
MICHIGAN CITY* FAIR      30  28  93 CALM      30.45R
LAPORTE*       FAIR      29  25  86 NW3       30.44R
KNOX*          FAIR      27  23  86 CALM      30.44R
SOUTH BEND     FAIR      26  21  81 CALM      30.43S
GOSHEN         FAIR      30  23  75 VRB7      30.42R WCI  23
MONTICELLO*    FAIR      33  22  65 N5        30.43R WCI  28
LOGANSPORT*    FAIR      32  23  69 N5        30.44R WCI  27
ROCHESTER*     FAIR      34  27  75 CALM      30.43R
WARSAW*        FAIR      32  23  69 NW5       30.42R WCI  27
ANGOLA*        FAIR      32  21  64 NW6       30.39S WCI  26
FORT WAYNE     FAIR      33  23  66 N5        30.41R WCI  29
HUNTINGTON*    FAIR      32  19  57 NW3       30.41S
PERU/GRISSOM   FAIR      34  23  64 N3        30.42R
MARION*        FAIR      31  23  71 CALM      30.42R

$$
INZ028>050-200900-
CENTRAL INDIANA

CITY           SKY/WX    TMP DP  RH WIND       PRES   REMARKS
LAFAYETTE      FAIR      28  22  78 CALM      30.44R
KOKOMO*        FAIR      32  23  69 N7        30.43R WCI  26
MUNCIE*        FAIR      32  22  66 NW5       30.40S WCI  27
INDIANAPOLIS   FAIR      34  17  50 N6        30.43R WCI  29

$$
MIZ043>046-050>051-056>058-064>065-071>073-077>080-200900-
SOUTHWEST LOWER MICHIGAN

CITY           SKY/WX    TMP DP  RH WIND       PRES   REMARKS
BATTLE CREEK   FAIR      30  20  66 NW5       30.40S WCI  25
BENTON HARBOR  FAIR      25  21  85 W5        30.43S WCI  19
COLDWATER*     FAIR      31  22  68 W3        30.39S
HILLSDALE*     FAIR      32  19  59 N3        30.36S
HOLLAND        FAIR      29  24  82 CALM      30.43S
GRAND RAPIDS   FAIR      34  19  54 W9        30.41S WCI  27
KALAMAZOO      FAIR      31  17  56 NW5       30.41S WCI  26
STURGIS*       FAIR      34  20  55 N5        30.40S WCI  30
THREE RIVERS*  FAIR      31  23  71 CALM      30.42S

$$
OHZ001>008-015>018-024>025-200900-
NORTHWEST OHIO

CITY           SKY/WX    TMP DP  RH WIND       PRES   REMARKS
DEFIANCE       FAIR      34  24  67 NW5       30.39S WCI  30
FINDLAY        FAIR      34  26  72 CALM      30.36S
TOLEDO EXPRESS FAIR      35  22  58 NW6       30.38R WCI  30
TOLEDO METCALF FAIR      32  27  81 NW3       30.38S
LIMA           FAIR      33  28  81 N3        30.37R

$$
AND FOR LAKE MICHIGAN COASTAL AND OPEN LAKE BUOY OBSERVATIONS

STATION/POSITION TIME  TEMP    WIND        PRES    VSBY  WAVE
                       AIR SEA DIR/SP/G                  HT/PER
                 (UTC) (F)     (DEG/KT/KT) (MB)    (MI)  (FT/S)
CALUMET HARBOR   0748   38     260/  2/  4 1030.2R
MICHIGAN CITY    0740   39     350/  4/  4   N/A
BURNS HARBOR     0723   41     270/  3/  5 1031.2S
SAINT JOSEPH     0800   33      CALM  /  1 1031.2

$$
&&




USA.gov is the U.S. government's official web portal to all federal, state and local government web resources and services.